ニオワイズ彗星

417P/NEOWISE (2015)

English version
Home page
Updated on May 26, 2021

---------------------------------------------------------------------

・ プロフィール

符号 417P/2015 J3
発見日 2015年5月15日
発見光度 19等
発見者 Near-Earth Object Wide-field Infrared Survey Explorer (NEOWISE)

・ 写真集

・ 軌道要素

Epoch 2015 Feb. 27.0 TT = JDT 2457080.5                                         
T 2015 Mar. 3.76427 TT                                  Rudenko                 
q   1.4940813            (2000.0)            P               Q                  
n   0.16076495     Peri.  129.29192     -0.48194721     +0.86626466             
a   3.3497198      Node   111.42138     -0.84112062     -0.41534026             
e   0.5539683      Incl.    8.12543     -0.24544449     -0.27762928             
P   6.13                                                                        
From 121 observations 2015 May 15-2021 Jan. 18, mean residual 0".5.             

・ 光度変化

        m1 = 16.0 + 5 logΔ + 10.0 log r

---------------------------------------------------------------------

軌道要素はM.P.E.C. 2021-B118に掲載されたものです。
光度グラフはComet for Windowsで作成したものです。

---------------------------------------------------------------------

Copyright(C) Seiichi Yoshida (comet@aerith.net). All rights reserved.